Hourly Data Report for August 08, 2017

All times are specified in Local Standard Time (LST). Add 1 hour to adjust for Daylight Saving Time where and when it is observed.

ST. STEPHEN
NEW BRUNSWICK

45°12'36.600" N
67°15'10.300" W
26.10 m
8104935
71607
WSS

Download Data

Hourly Data (August 2017)
Hourly Data Report for August 8, 2017
Temp Definition
°C
Dew Point Temp Definition
°C
Rel Hum Definition
%
Wind Dir Definition
10's deg

Wind Spd Definition
km/h
Visibility Definition
km
Stn Press Definition
kPa
Hmdx Definition


Wind Chill Definition


Weather Definition


TIME
00:00 15.7 13.4 86 0 1   101.08     LegendNANA
01:00 15.4 13.4 88 16 3   101.05     LegendNANA
02:00 15.8 13.7 87 15 3   101.07     LegendNANA
03:00 16.0 13.5 85 31 2   101.06     LegendNANA
04:00 15.9 11.1 73 3 2   101.04     LegendNANA
05:00 15.2 11.8 80 4 4   101.02     LegendNANA
06:00 15.4 11.7 79 5 8   101.12     LegendNANA
07:00 14.7 11.7 82 36 4   101.15     LegendNANA
08:00 14.0 11.9 87 6 5   101.17     LegendNANA
09:00 14.2 11.6 84 6 4   101.15     LegendNANA
10:00 14.4 12.2 87 4 3   101.13     LegendNANA
11:00 14.5 12.2 87 3 4   101.13     LegendNANA
12:00 15.8 13.1 84 6 7   101.03     LegendNANA
13:00 16.0 12.4 79 4 3   101.00     LegendNANA
14:00 16.7 12.5 76 9 6   100.95     LegendNANA
15:00 17.3 12.6 74 24 3   100.92     LegendNANA
16:00 18.2 12.6 70 16 3   100.90     LegendNANA
17:00 18.7 12.9 69 22 5   100.89     LegendNANA
18:00 19.4 12.8 66 21 3   100.87     LegendNANA
19:00 19.1 13.6 71 16 5   100.89     LegendNANA
20:00 15.4 13.4 88   0   100.95     LegendNANA
21:00 13.3 12.3 94   0   101.04     LegendNANA
22:00 12.1 11.3 95   0   101.09     LegendNANA
23:00 11.2 10.5 96   0   101.14     LegendNANA

Notes on Data Quality.

Legend

  • E = Estimated
  • M = Missing
  • NA = Not Available
  • ‡ = Partner data that is not subject to review by the National Climate Archives
Date modified: